Regional Weather Roundup
Issued by NWS Newport/Morehead, NC

Current Version | Previous Version | Graphics & Text | Print | Product List | Glossary Off
Versions: 1 2 3 4 5 6 7 8 9 10 11 12 13 14 15 16 17 18 19 20 21 22 23 24 25 26 27 28 29 30 31 32 33 34 35 36 37 38 39 40 41 42 43 44 45 46 47 48 49 50
000 ASUS42 KMHX 180522 RWRMHX WEATHER ROUNDUP FOR EASTERN NORTH CAROLINA NATIONAL WEATHER SERVICE NEWPORT/MOREHEAD CITY NC 100 AM EDT THU SEP 18 2014 NOTE: "FAIR" INDICATES FEW OR NO CLOUDS BELOW 12,000 FEET WITH NO SIGNIFICANT WEATHER AND/OR OBSTRUCTIONS TO VISIBILITY NCZ015>017-031-032-045>047-102-103-180600- NORTH COAST CITY SKY/WX TMP DP RH WIND PRES REMARKS EDENTON CLEAR 63 61 93 N6 29.95S ELIZABETH CITY CLEAR 67 61 81 NE6 29.95 KITTY HAWK CLEAR 71 59 67 NE7 29.92F MANTEO CLEAR 69 60 72 NE10 29.94S $$ NCZ045>047-081-094-103-104-180600- CENTRAL COAST CITY SKY/WX TMP DP RH WIND PRES REMARKS FRISCO CLEAR 69 63 81 NE9 29.92S SWANQUARTER N/A 66 N/A N/A NE3 29.88S $$ NCZ095-097-098-100-101-180600- SOUTHERN COAST CITY SKY/WX TMP DP RH WIND PRES REMARKS BEAUFORT CLEAR 71 66 84 NE6 29.91F CEDAR ISLAND N/A 73 N/A N/A NE16 29.94S JACKSONVILLE CLEAR 68 64 87 N3 29.92F NEWPORT NOT AVBL PINEY ISLAND PTCLDY 76 65 68 NE13 29.91F WILMINGTON MOCLDY 68 66 93 NE8 29.92F $$ NCZ011>013-027>030-043-044-078>080-089-090>093-098-180600- COASTAL PLAIN CITY SKY/WX TMP DP RH WIND PRES REMARKS AHOSKIE PTCLDY 60 58 94 CALM 29.96S CLINTON MOCLDY 67 65 93 CALM 29.95S ELIZABETHTOWN MOCLDY 68 66 93 E3 29.93F GOLDSBORO PTCLDY 66 65 98 CALM 29.93F GREENVILLE PTCLDY 63 63 100 N3 29.97S HAVELOCK CLEAR 70 64 81 NE8 29.93F KENANSVILLE PTCLDY 66 64 94 CALM 29.95S KINSTON PTCLDY 66 64 91 N3 29.95F NEW BERN CLEAR 69 62 78 NE5 29.94F RICHLANDS MOCLDY 64 61 88 CALM 29.94S ROANOKE RAPIDS NOT AVBL ROCKY MOUNT PTCLDY 62 59 90 NE5 29.96F WASHINGTON PTCLDY 63 61 93 CALM 29.94F WHITEVILLE PTCLDY 70 66 89 NE6 29.91F $$ AMZ130-135-150-152-154-156-158-170-250-252-270-ANZ085-086-088-633-658-670-180600- MARINE OBSERVATIONS STATION/POSITION TIME TEMP WIND PRES WAVE SWELL AIR SEA DIR/SP/G HT/PER HT/PER (UTC) (F) (DEG/KT/KT) (MB) (FT/S) (FT/S) CHESAPEAKE LIGHT 0500 70 70/ 11/ 12 1014.9 BUOY 44014 0500 72 77 30/ 12/ 16 1013.6 5/13 5/13 DUCK 0500 72 76 50/ 12/ 16 1013.1 2E DUCK 0400 N/A 5/14 3/14 OREGON INLET 0500 72 76 40/ 11/ 15 1013.2 BUOY 44095 0500 76 N/A 5/13 3/13 20E OREGON INLET NOT AVBL HATTERAS CG 0500 73 78 40/ 10/ 17 1013.3 DIAMOND BUOY 0500 75 20/ 17/ 21 1012.0 6/12 3/12 CAPE LOOKOUT 0500 75 50/ 16/ 19 1012.4 BEAUFORT LAB 0500 71 79 20/ 5/ 7 1012.2 30 SE NEW RIVER 0500 78 82 50/ 14/ 16 1012.5 5/12 3/12 5 SE WRIGHTSVILL 0500 73 81 60/ 14/ 16 N/A BUOY 41002 0442 78 82 350/ 6/ 8 1011.4 5/11 5/11 BUOY 41004 0500 81 83 20/ 4/ 6 1012.2 4/13 3/13 $$

USA.gov is the U.S. government's official web portal to all federal, state and local government web resources and services.